TimePST,TemperatureF,Dew PointF,Humidity,Sea Level PressureIn,VisibilityMPH,Wind Direction,Wind SpeedMPH,Gust SpeedMPH,PrecipitationIn,Events,Conditions,WindDirDegrees,DateUTC
12:00 AM,59.0,59.0,100,30.04,10.0,South,6.9,-,N/A,,Overcast,180,2012-11-21 08:00:00
12:09 AM,59.0,59.0,100,30.06,9.0,SW,6.9,-,N/A,,Light Drizzle,220,2012-11-21 08:09:00
12:19 AM,59.0,59.0,100,30.05,3.0,SW,5.8,-,N/A,Rain,Light Rain,230,2012-11-21 08:19:00
12:20 AM,59.0,59.0,100,30.05,2.5,SW,5.8,-,N/A,,Overcast,230,2012-11-21 08:20:00
12:23 AM,59.0,59.0,100,30.06,2.0,SW,5.8,-,N/A,Rain,Light Rain,230,2012-11-21 08:23:00
12:28 AM,57.2,57.2,100,30.05,2.5,SW,5.8,-,N/A,Rain,Light Rain,220,2012-11-21 08:28:00
12:38 AM,57.2,57.2,100,30.04,2.0,SSW,4.6,-,N/A,Rain,Light Rain,200,2012-11-21 08:38:00
12:39 AM,57.2,57.2,100,30.04,2.0,SSW,4.6,-,N/A,,Overcast,200,2012-11-21 08:39:00
12:41 AM,57.2,57.2,100,30.04,2.5,SSW,4.6,-,N/A,Rain,Light Rain,200,2012-11-21 08:41:00
12:46 AM,57.2,57.2,100,30.05,3.0,SSW,5.8,-,N/A,Rain,Light Rain,210,2012-11-21 08:46:00
12:51 AM,57.2,57.2,100,30.05,2.5,SSW,6.9,-,N/A,Rain,Light Rain,210,2012-11-21 08:51:00
12:56 AM,57.2,57.2,100,30.05,1.0,SSW,5.8,-,N/A,Rain,Rain,200,2012-11-21 08:56:00
12:58 AM,57.2,57.2,100,30.07,1.0,South,5.8,-,0.05,Rain,Rain,190,2012-11-21 08:58:00
1:08 AM,57.2,57.2,100,30.04,1.8,South,6.9,-,N/A,Rain,Light Rain,180,2012-11-21 09:08:00
1:13 AM,57.2,57.2,100,30.04,2.0,SSW,5.8,-,N/A,Rain,Rain,200,2012-11-21 09:13:00
1:18 AM,57.2,57.2,100,30.04,1.8,SSW,5.8,-,N/A,Rain,Rain,200,2012-11-21 09:18:00
1:23 AM,57.2,57.2,100,30.04,2.0,South,5.8,-,N/A,Rain,Light Rain,190,2012-11-21 09:23:00
1:28 AM,59.0,59.0,100,30.04,4.0,SSW,5.8,-,N/A,Rain,Light Rain,210,2012-11-21 09:28:00
1:33 AM,59.0,59.0,100,30.04,8.0,SW,5.8,-,N/A,Rain,Light Rain,220,2012-11-21 09:33:00
1:38 AM,59.0,59.0,100,30.04,3.0,SSW,5.8,-,N/A,Rain,Light Rain,200,2012-11-21 09:38:00
1:43 AM,59.0,59.0,100,30.04,2.0,SSW,5.8,-,N/A,Rain,Light Rain,210,2012-11-21 09:43:00
1:48 AM,59.0,59.0,100,30.04,2.5,South,5.8,-,N/A,Rain,Light Rain,190,2012-11-21 09:48:00
1:53 AM,59.0,59.0,100,30.04,2.0,South,4.6,-,N/A,Rain,Light Rain,190,2012-11-21 09:53:00
1:58 AM,58.1,58.1,100,30.06,2.0,SSW,4.6,-,0.13,Rain,Light Rain,200,2012-11-21 09:58:00
2:03 AM,59.0,59.0,100,30.05,3.0,South,4.6,-,N/A,Rain,Light Rain,190,2012-11-21 10:03:00
2:13 AM,59.0,59.0,100,30.04,7.0,South,6.9,-,N/A,Rain,Light Rain,170,2012-11-21 10:13:00
2:23 AM,57.2,57.2,100,30.04,3.0,South,6.9,-,N/A,Rain,Light Rain,170,2012-11-21 10:23:00
2:28 AM,57.2,57.2,100,30.04,2.5,South,6.9,-,N/A,Rain,Light Rain,170,2012-11-21 10:28:00
2:38 AM,57.2,57.2,100,30.04,2.0,SSE,8.1,-,N/A,Rain,Light Rain,160,2012-11-21 10:38:00
2:43 AM,57.2,57.2,100,30.03,2.5,SSE,5.8,-,N/A,Rain,Light Rain,150,2012-11-21 10:43:00
2:48 AM,57.2,57.2,100,30.04,4.0,SSE,5.8,-,N/A,Rain,Light Rain,150,2012-11-21 10:48:00
2:50 AM,57.2,57.2,100,30.03,5.0,SSE,8.1,-,N/A,,Overcast,150,2012-11-21 10:50:00
2:58 AM,57.9,57.9,100,30.06,4.0,SSE,6.9,-,0.06,,Overcast,150,2012-11-21 10:58:00
2:59 AM,57.2,57.2,100,30.04,4.0,SSE,5.8,-,N/A,Rain,Light Rain,160,2012-11-21 10:59:00
3:14 AM,57.2,57.2,100,30.04,1.5,SSW,3.5,-,N/A,Rain,Light Rain,210,2012-11-21 11:14:00
3:19 AM,57.2,57.2,100,30.04,0.8,Variable,3.5,-,N/A,Rain,Rain,0,2012-11-21 11:19:00
3:24 AM,57.2,57.2,100,30.04,1.0,SE,6.9,-,N/A,Rain,Light Rain,130,2012-11-21 11:24:00
3:29 AM,57.2,57.2,100,30.04,1.8,SE,4.6,-,N/A,Rain,Light Rain,140,2012-11-21 11:29:00
3:34 AM,57.2,57.2,100,30.04,2.0,ESE,8.1,-,N/A,Rain,Light Rain,110,2012-11-21 11:34:00
3:49 AM,57.2,57.2,100,30.04,1.8,SE,6.9,-,N/A,Rain,Light Rain,130,2012-11-21 11:49:00
3:58 AM,56.7,56.7,100,30.06,1.5,SE,8.1,-,0.07,Rain,Light Rain,130,2012-11-21 11:58:00
4:03 AM,57.2,57.2,100,30.03,1.2,SE,8.1,-,N/A,Rain,Light Rain,130,2012-11-21 12:03:00
4:08 AM,57.2,57.2,100,30.04,1.8,SE,4.6,-,N/A,Rain,Light Rain,140,2012-11-21 12:08:00
4:13 AM,57.2,57.2,100,30.04,2.0,Calm,Calm,-,N/A,Rain,Light Rain,0,2012-11-21 12:13:00
4:18 AM,57.2,57.2,100,30.04,1.5,Calm,Calm,-,N/A,Rain,Light Rain,20,2012-11-21 12:18:00
4:23 AM,57.2,57.2,100,30.04,1.0,North,1.2,-,N/A,Rain,Rain,350,2012-11-21 12:23:00
4:33 AM,57.2,57.2,100,30.04,1.2,NNE,3.5,-,N/A,Rain,Light Rain,30,2012-11-21 12:33:00
4:38 AM,57.2,57.2,100,30.04,1.5,North,4.6,-,N/A,Rain,Light Rain,10,2012-11-21 12:38:00
4:43 AM,57.2,57.2,100,30.04,2.0,North,3.5,-,N/A,Rain,Light Rain,360,2012-11-21 12:43:00
4:48 AM,57.2,57.2,100,30.04,2.5,East,4.6,-,N/A,Rain,Light Rain,90,2012-11-21 12:48:00
4:53 AM,57.2,57.2,100,30.04,4.0,ESE,3.5,-,N/A,,Light Drizzle,120,2012-11-21 12:53:00
4:58 AM,56.5,56.5,100,30.07,4.0,ESE,4.6,-,0.08,,Light Drizzle,120,2012-11-21 12:58:00
4:59 AM,57.2,57.2,100,30.05,4.0,ESE,4.6,-,N/A,,Overcast,110,2012-11-21 12:59:00
5:04 AM,57.2,57.2,100,30.05,4.0,ESE,4.6,-,N/A,Rain,Light Rain,120,2012-11-21 13:04:00
5:09 AM,57.2,57.2,100,30.05,4.0,ESE,4.6,-,N/A,Rain,Light Rain,110,2012-11-21 13:09:00
5:19 AM,57.2,57.2,100,30.06,2.5,ESE,4.6,-,N/A,Rain,Light Rain,120,2012-11-21 13:19:00
5:24 AM,57.2,57.2,100,30.06,1.8,ESE,3.5,-,N/A,Rain,Light Rain,110,2012-11-21 13:24:00
5:29 AM,57.2,57.2,100,30.05,1.5,SE,4.6,-,N/A,Rain,Light Rain,130,2012-11-21 13:29:00
5:34 AM,57.2,57.2,100,30.06,1.2,SE,4.6,-,N/A,Rain,Light Rain,140,2012-11-21 13:34:00
5:39 AM,57.2,57.2,100,30.06,1.5,SE,4.6,-,N/A,Rain,Light Rain,130,2012-11-21 13:39:00
5:44 AM,57.2,57.2,100,30.06,1.8,SE,4.6,-,N/A,Rain,Light Rain,140,2012-11-21 13:44:00
5:49 AM,57.2,57.2,100,30.06,1.5,SSE,4.6,-,N/A,Rain,Light Rain,150,2012-11-21 13:49:00
5:54 AM,57.2,57.2,100,30.07,2.0,SSE,4.6,-,N/A,,Light Drizzle,150,2012-11-21 13:54:00
5:58 AM,56.7,56.7,100,30.09,2.0,SE,5.8,-,0.02,,Light Drizzle,130,2012-11-21 13:58:00
6:03 AM,57.2,57.2,100,30.07,1.8,SE,5.8,-,N/A,,Light Drizzle,140,2012-11-21 14:03:00
6:08 AM,57.2,57.2,100,30.07,1.8,SE,5.8,-,N/A,Rain,Light Rain,130,2012-11-21 14:08:00
6:09 AM,57.2,57.2,100,30.07,2.0,SE,5.8,-,N/A,Rain,Light Rain,130,2012-11-21 14:09:00
6:14 AM,57.2,57.2,100,30.07,2.5,SE,4.6,-,N/A,,Light Drizzle,130,2012-11-21 14:14:00
6:18 AM,57.2,57.2,100,30.07,3.0,SE,6.9,-,N/A,,Overcast,130,2012-11-21 14:18:00
6:23 AM,57.2,57.2,100,30.07,3.0,SSE,5.8,-,N/A,,Overcast,150,2012-11-21 14:23:00
6:28 AM,57.2,57.2,100,30.07,4.0,SSE,5.8,-,N/A,,Overcast,150,2012-11-21 14:28:00
6:48 AM,57.2,57.2,100,30.08,4.0,SE,6.9,-,N/A,,Overcast,130,2012-11-21 14:48:00
6:49 AM,57.2,57.2,100,30.08,4.0,SE,8.1,-,N/A,,Light Drizzle,130,2012-11-21 14:49:00
6:54 AM,57.2,57.2,100,30.08,4.0,SE,6.9,-,N/A,,Light Drizzle,130,2012-11-21 14:54:00
6:58 AM,56.5,56.5,100,30.11,5.0,SE,6.9,-,0.01,,Light Drizzle,140,2012-11-21 14:58:00
6:59 AM,57.2,57.2,100,30.09,5.0,SE,6.9,-,N/A,,Overcast,130,2012-11-21 14:59:00
7:14 AM,57.2,57.2,100,30.09,2.5,SSE,6.9,-,N/A,,Overcast,160,2012-11-21 15:14:00
7:15 AM,57.2,57.2,100,30.09,2.0,SSE,6.9,-,N/A,,Overcast,160,2012-11-21 15:15:00
7:20 AM,57.2,57.2,100,30.10,1.8,SSE,6.9,-,N/A,,Overcast,150,2012-11-21 15:20:00
7:21 AM,57.2,57.2,100,30.10,1.8,SSE,8.1,-,N/A,Rain,Light Rain,150,2012-11-21 15:21:00
7:26 AM,57.2,57.2,100,30.10,2.5,SSE,6.9,-,N/A,Rain,Light Rain,150,2012-11-21 15:26:00
7:31 AM,57.2,57.2,100,30.10,3.0,SE,6.9,-,N/A,Rain,Light Rain,140,2012-11-21 15:31:00
7:32 AM,57.2,57.2,100,30.10,3.0,SE,6.9,-,N/A,,Overcast,140,2012-11-21 15:32:00
7:37 AM,57.2,57.2,100,30.10,3.0,SSE,5.8,-,N/A,,Overcast,150,2012-11-21 15:37:00
7:47 AM,57.2,57.2,100,30.11,5.0,SSE,6.9,-,N/A,,Mostly Cloudy,160,2012-11-21 15:47:00
7:52 AM,57.2,57.2,100,30.11,8.0,SSE,5.8,-,N/A,,Overcast,160,2012-11-21 15:52:00
7:58 AM,56.7,56.7,100,30.13,10.0,South,5.8,-,0.00,,Overcast,170,2012-11-21 15:58:00
8:03 AM,57.2,57.2,100,30.11,10.0,South,6.9,-,N/A,,Overcast,170,2012-11-21 16:03:00
8:58 AM,58.3,58.3,100,30.15,10.0,South,6.9,-,N/A,,Overcast,190,2012-11-21 16:58:00
9:28 AM,60.8,60.8,100,30.14,10.0,SW,10.4,-,N/A,,Mostly Cloudy,230,2012-11-21 17:28:00
9:33 AM,60.8,60.8,100,30.14,10.0,WSW,12.7,-,N/A,,Mostly Cloudy,240,2012-11-21 17:33:00
9:38 AM,59.0,59.0,100,30.14,10.0,WSW,12.7,-,N/A,,Scattered Clouds,240,2012-11-21 17:38:00
9:58 AM,61.5,61.3,99,30.16,10.0,WSW,13.8,-,0.01,,Clear,240,2012-11-21 17:58:00
10:58 AM,64.2,56.8,77,30.17,10.0,WSW,16.1,-,N/A,,Clear,250,2012-11-21 18:58:00
11:58 AM,64.4,53.2,67,30.15,10.0,WSW,12.7,-,N/A,,Clear,240,2012-11-21 19:58:00
12:58 PM,66.0,50.7,58,30.15,10.0,West,12.7,-,N/A,,Partly Cloudy,260,2012-11-21 20:58:00
1:58 PM,66.6,50.2,56,30.14,10.0,West,8.1,-,N/A,,Clear,260,2012-11-21 21:58:00
2:44 PM,66.2,50.0,56,30.13,10.0,West,11.5,-,N/A,,Scattered Clouds,270,2012-11-21 22:44:00
2:58 PM,64.9,49.1,56,30.15,10.0,West,12.7,-,N/A,,Scattered Clouds,270,2012-11-21 22:58:00
3:58 PM,64.6,49.3,58,30.15,10.0,West,6.9,-,N/A,,Clear,270,2012-11-21 23:58:00
4:58 PM,59.0,48.4,68,30.15,10.0,West,8.1,-,N/A,,Clear,270,2012-11-22 00:58:00
5:58 PM,54.1,49.8,85,30.16,10.0,WSW,6.9,-,N/A,,Clear,250,2012-11-22 01:58:00
6:58 PM,52.9,51.4,95,30.17,10.0,WSW,8.1,-,N/A,,Clear,250,2012-11-22 02:58:00
7:58 PM,51.8,49.3,91,30.18,10.0,WSW,4.6,-,N/A,,Clear,250,2012-11-22 03:58:00
8:58 PM,46.9,46.8,99,30.19,10.0,SSW,1.2,-,N/A,,Clear,210,2012-11-22 04:58:00
9:58 PM,45.5,45.3,99,30.21,10.0,South,3.5,-,N/A,,Clear,190,2012-11-22 05:58:00
10:58 PM,46.0,45.9,99,30.21,10.0,Calm,Calm,-,N/A,,Clear,10,2012-11-22 06:58:00
11:58 PM,44.8,44.4,99,30.21,10.0,West,2.3,-,N/A,,Clear,260,2012-11-22 07:58:00